Voltar ao catálogo

ARIANE 5 DEB

SYLDA

AtivoHEO
NORAD 29274·DEBRIS·🇫🇷 France

Lançado Aug 11, 2006 de Guiana Space Centre

Loading…

Próximas Passagens (próximas 24 horas)

TLE

AtualizadoSource: Space-Track

Época: Sep 14, 2026, 08:11 UTC

1 29274U 06033C   26257.34124404  .00001759  00000-0  24012-2 0  9993
2 29274   5.8803  63.2132 5599376 202.6065 117.7491  4.49354289253910

Acompanhe ARIANE 5 DEB em tempo real com AllMySat

Download on the App Store